Kuiper Belt Object 2010 RF43 is a trans-Neptunian object with an absolute magnitude of 4.1. It was discovered on September 6, 2010 by S. D. Benecchi at the Las Campanas Observatory in Chile. Read more
On 2015 Sep 06, asteroid (661) Cloelia will occult a 5.9 mag star HD 216718 in the constellation Aquarius for observers along a path across Central America, New Guinea. Read more
Orbital elements:
2013 NS13 Earth MOID = 0.0102 AU
Epoch 2013 Apr. 18.0 TT = JDT 2456400.5 MPC
M 317.92242 (2000.0) P Q
n 0.34933754 Peri. 217.78171 +0.88820695 +0.45540998
a 1.9966681 Node 115.02324 -0.40350608 +0.83644580
e 0.5124679 Incl. 3.84395 -0.21970722 +0.30489369
P 2.82 H 25.4...
Orbital elements: 2009 BK2 Earth MOID = 0.0256 AU Epoch 2008 Nov. 30.0 TT = JDT 2454800.5 MPC M 202.83674 (2000.0) P Q n 0.96814954 Peri. 121.45607 -0.37155025 +0.92706282 a 1.0119858 Node 126.65038 -0.87156949 -0.32972103 e 0.2127443 Incl. 3.57660 -0.31987035 -0.17843365 P 1.02 H 25.2 G 0.15 U 8 M...
Title: Reversals of the solar dipole Authors: David Moss, Leonid L. Kitchatinov, Dmitri Sokoloff During a solar magnetic field reversal the magnetic dipole moment does not vanish, but migrates between poles, in contradiction to the predictions of mean-field dynamo theory. We try to explain thi...
New observations from NASA's Hubble Space Telescope (HST) will be presented by astronomers during a media teleconference at 1 p.m. EDT, Wednesday, June 22.
link:
A picture taken by Hubble has provided the most detailed visible-ligh...
Title: The Araucaria Project. Precise physical parameters of the eclipsing binary IO Aqr Author: D. Graczyk, P. F. L. Maxted, G. Pietrzynski, B. Pilecki, P. Konorski, W. Gieren, J. Storm, A. Gallenne, R. I. Anderson, K. Suchomska, R. G. West, D. Pollacco, F. Faedi, G. Pojmanski Our aim is to precise...
Title: Simulations of the Origin and Fate of the Galactic Center Cloud G2 Authors: M. Schartmann, A. Burkert, Ch. Alig, S. Gillessen, R. Genzel, F. Eisenhauer, T. K. Fritz We investigate the origin and fate of the recently discovered gas cloud G2 close to the Galactic Center. Our hydrodynamical sim...
A tiny galaxy has given astronomers a glimpse of a time when the first bright objects in the universe formed, ending the dark ages that followed the birth of the u...
Title: DA495 - an aging pulsar wind nebula Authors: R. Kothes, T.L. Landecker, W. Reich, S. Safi-Harb, Z. Arzoumanian We present a radio continuum study of the pulsar wind nebula (PWN) DA 495 (G65.7+1.2), including images of total intensity and linear polarization from 408 to 10550 MHz based on the...
Title: Improved Algorithms for Radar-based Reconstruction of Asteroid Shapes Author: Adam H. Greenberg, Jean-Luc Margot We describe our implementation of a global-parameter optimizer and Square Root Information Filter (SRIF) into the asteroid-modelling software SHAPE. We compare the per...
Title: SN 2013dx associated with GRB 130702A: a detailed photometric and spectroscopic monitoring and a study of the environment Author: V. D'Elia, E. Pian, A. Melandri, P. D'Avanzo, M. Della Valle, P.A. Mazzali, S. Piranomonte, G. Tagliaferri, L.A. Antonelli, F. Bufano, S. Covino, D. Fugazza,...
Title: Nebular water depletion as the cause of Jupiter's low oxygen abundance Authors: Olivier Mousis, Jonathan I. Lunine, Nikku Madhusudhan, Torrence V. Johnson Motivated by recent spectroscopic observations suggesting that atmospheres of some extrasolar giant-planets are carbon-rich,...
Title: The Signature of Primordial Grain Growth in the Polarised Light of the AU Mic Debris Disk
Authors: James R. Graham, Paul G. Kalas (Berkeley), Brenda C. Matthews (HIA)
We have used the Hubble Space Telescope/ACS coronagraph to make polarization maps of the AU Mic debri...
Title: Physical Properties of Red Supergiants Authors: Philip Massey, Bertrand Plez, Emily M. Levesque, K. A. G. Olsen, David R. Silva, Geoffery C. Clayton Red supergiants (RSGs) are an evolved stage in the life of intermediate massive stars (<25Mo). For many years their location in the H-R di...